Flag for Puerto Rico Weather past 2 weeks in Ponce, Puerto Rico

Now
81 °F

Clear.


Feels Like: 85 °F
Forecast: 77 / 96 °F
Wind: 8 mph from Southeast

Location: Ponce / Mercedita

Current Time: Jul 5, 2015 at 12:59:14 AM

Latest Report: Jul 4, 2015 at 11:50 PM


Visibility: 9 mi

Pressure: 30.01 "Hg

Humidity: 74%

Dew point: 72 °F

Location of PonceLocation

Historic Weather in Ponce — Graph

°F

Ponce temperature yesterday

Maximum temperature yesterday: 93 °F (at 11:50 AM)
Minimum temperature yesterday: 81 °F (at 3:50 AM)
Average temperature yesterday: 86 °F

Past Weeks' High & Low Weather Summary

 TemperatureHumidityPressure
High93 °F (Jul 3, 11:50 AM)94% (Jun 20, 9:50 PM)30.10 "Hg (Jun 20, 9:50 PM)
Low73 °F (Jun 21, 2:50 AM)46% (Jul 4, 5:50 PM)29.96 "Hg (Jul 4, 3:50 AM)
Average82 °F73%30.03 "Hg
* Reported Jun 19 10:50 PM — Jul 4 10:50 PM, Ponce, Weather by CustomWeather, © 2015

Note: Actual official high and low records may vary slightly from our data, if they occured in-between our weather recording intervals... More about our weather records

Advertising

Ponce weather history for previous 24 hours

 ConditionsComfort  
Time TempWeatherWind HumidityBarometerVisibility
10:50 PM
Sat, Jul 4
82 °FClear.9 mph70%30.01 "Hg9 mi
9:50 PM82 °FClear.9 mph70%30.02 "Hg8 mi
8:50 PM82 °FClear.9 mph70%30.01 "Hg8 mi
6:50 PM88 °FSunny.12 mph52%29.97 "Hg8 mi
5:50 PM90 °FSunny.12 mph46%29.96 "Hg8 mi
4:50 PM90 °FSunny.12 mph59%29.97 "Hg8 mi
3:50 PM91 °FSunny.14 mph49%29.97 "Hg8 mi
2:50 PM93 °FPassing clouds.14 mph53%30.00 "Hg8 mi
12:50 PM93 °FPassing clouds.14 mph53%30.01 "Hg8 mi
11:50 AM93 °FPassing clouds.14 mph53%30.02 "Hg8 mi
10:50 AM91 °FPassing clouds.14 mph56%30.02 "Hg8 mi
9:50 AM91 °FScattered clouds.12 mph52%30.00 "Hg8 mi
7:50 AM84 °FScattered clouds.12 mph66%30.00 "Hg8 mi
6:50 AM82 °FPassing clouds.9 mph70%30.00 "Hg8 mi
4:50 AM81 °FClear.9 mph74%29.96 "Hg10 mi
3:50 AM81 °FClear.7 mph74%29.96 "Hg10 mi
2:50 AM82 °FPassing clouds.12 mph70%29.97 "Hg10 mi
1:50 AM82 °FClear.7 mph70%29.97 "Hg10 mi
12:50 AM82 °FClear.8 mph70%29.99 "Hg10 mi
Weather by CustomWeather, © 2015

See weather overviewHow to use our weather pages